DW8947 Weather Reports


Display with metric or nautical units.
time (UTC)temp
F
wind
direction
speed
MPH
gust
MPH
rain 1hr
in
rain 24hr
in
rain mn
in
humidity
%
barometer
mb
20260905104205 54 73 0.0 2.0 0.00 0.00 0.00 91 1015.2
20260905103705 54 73 0.0 0.0 0.00 0.00 0.00 91 1015.3
20260905102704 54 73 0.0 2.0 0.00 0.00 0.00 92 1015.2
20260905102205 54 73 0.0 2.0 0.00 0.00 0.00 92 1015.2
20260905101204 54 73 0.0 2.0 0.00 0.00 0.00 92 1015.1
20260905100705 54 73 0.0 2.0 0.00 0.00 0.00 92 1015.1
20260905095705 54 73 0.0 0.0 0.00 0.00 0.00 91 1015.1
20260905094706 54 73 0.0 2.0 0.00 0.00 0.00 91 1015.1
20260905094204 54 73 0.0 0.0 0.00 0.00 0.00 91 1015.1
20260905093205 54 73 0.0 0.0 0.00 0.00 0.00 91 1015.0
20260905091705 55 73 0.0 0.0 0.00 0.00 0.00 91 1014.9
20260905091204 55 73 0.0 0.0 0.00 0.00 0.00 91 1014.9
20260905090705 55 73 0.0 0.0 0.00 0.00 0.00 91 1014.8
20260905085705 55 73 0.0 2.0 0.00 0.00 0.00 91 1014.8
20260905084705 55 73 0.0 1.0 0.00 0.00 0.00 90 1014.7
20260905083205 55 73 0.0 2.0 0.00 0.00 0.00 89 1014.7
20260905082704 55 73 0.0 1.0 0.00 0.00 0.00 89 1014.7
20260905081705 56 73 0.0 2.0 0.00 0.00 0.00 88 1014.8
20260905081205 56 73 0.0 2.0 0.00 0.00 0.00 88 1014.8
20260905080704 56 73 0.0 2.0 0.00 0.00 0.00 88 1014.7
20260905075204 57 73 0.0 2.0 0.00 0.00 0.00 87 1014.7
20260905073204 57 73 0.0 2.0 0.00 0.00 0.00 86 1014.5
20260905072705 57 73 0.0 2.0 0.00 0.00 0.00 86 1014.5
20260905072205 57 154 0.0 1.0 0.00 0.00 0.00 86 1014.5
20260905070705 57 95 0.0 2.0 0.00 0.00 0.00 85 1014.3
20260905070205 57 95 0.0 2.0 0.00 0.00 0.00 85 1014.3
20260905065705 57 140 0.0 2.0 0.00 0.00 0.00 86 1014.3
20260905065205 57 140 0.0 2.0 0.00 0.00 0.00 85 1014.3
20260905061204 58 140 0.0 0.0 0.00 0.00 0.00 86 1014.3
20260905055205 58 140 0.0 0.0 0.00 0.00 0.00 85 1014.3
20260905054205 58 140 0.0 1.0 0.00 0.00 0.00 85 1014.3
20260905052705 58 140 0.0 0.0 0.00 0.00 0.00 84 1014.3
20260905051205 58 140 0.0 0.0 0.00 0.00 0.00 84 1014.2
20260905050204 58 140 0.0 2.0 0.00 0.00 0.00 84 1014.2
20260905045705 58 140 0.0 0.0 0.00 0.00 0.00 83 1014.3
20260905044205 58 140 0.0 0.0 0.00 0.00 0.00 83 1014.3
20260905043705 59 140 0.0 2.0 0.00 0.00 0.00 82 1014.3
20260905042705 59 140 0.0 0.0 0.00 0.00 0.00 81 1014.3
20260905042205 59 140 0.0 0.0 0.00 0.00 0.00 81 1014.2
20260905041204 59 140 0.0 0.0 0.00 0.00 0.00 79 1014.2
20260905034204 60 140 0.0 0.0 0.00 0.00 0.00 77 1014.0
20260905032705 61 140 0.0 2.0 0.00 0.00 0.00 76 1013.9
20260905032205 61 140 0.0 0.0 0.00 0.00 0.00 76 1013.9
20260905031705 61 140 0.0 2.0 0.00 0.00 0.00 76 1013.9
20260905031204 61 140 0.0 0.0 0.00 0.00 0.00 76 1013.8
20260905024705 62 140 0.0 0.0 0.00 0.00 0.00 73 1013.6
20260905024204 63 140 0.0 1.0 0.00 0.00 0.00 73 1013.6
20260905023704 63 140 0.0 2.0 0.00 0.00 0.00 73 1013.6
20260905022704 63 140 0.0 2.0 0.00 0.00 0.00 73 1013.6
20260905015205 65 94 0.0 0.0 0.00 0.00 0.00 69 1013.5
20260905014705 65 94 0.0 2.0 0.00 0.00 0.00 69 1013.5
20260905013204 66 176 0.0 2.0 0.00 0.00 0.00 68 1013.3
20260905012705 66 197 0.0 2.0 0.00 0.00 0.00 68 1013.2
20260905012205 66 244 1.0 2.0 0.00 0.00 0.00 66 1013.1
20260905010705 66 16 0.0 1.0 0.00 0.00 0.00 66 1013.0
20260905005204 66 173 0.0 2.0 0.00 0.00 0.00 64 1012.8
20260905003704 67 339 1.0 2.0 0.00 0.00 0.00 62 1012.5
20260905003204 67 298 1.0 2.0 0.00 0.00 0.00 62 1012.5
20260905002205 67 303 1.0 3.0 0.00 0.00 0.00 62 1012.3
20260905001704 67 8 0.0 2.0 0.00 0.00 0.00 65 1012.3
20260905000205 68 331 1.0 2.0 0.00 0.00 0.00 65 1012.2
20260904235704 68 89 1.0 2.0 0.00 0.00 0.00 61 1012.2
20260904234704 68 146 0.0 2.0 0.00 0.00 0.00 62 1012.2
20260904234205 68 132 1.0 2.0 0.00 0.00 0.00 62 1012.2
20260904232204 68 47 1.0 1.0 0.00 0.00 0.00 66 1012.2
20260904231705 68 167 0.0 2.0 0.00 0.00 0.00 64 1012.1
20260904231205 68 229 0.0 2.0 0.00 0.00 0.00 63 1012.0
20260904225705 68 160 1.0 1.0 0.00 0.00 0.00 61 1012.0
20260904224204 68 155 0.0 3.0 0.00 0.00 0.00 64 1011.9
20260904223204 67 174 1.0 2.0 0.00 0.00 0.00 64 1012.0
20260904222204 67 335 0.0 2.0 0.00 0.00 0.00 63 1011.9
20260904215704 66 191 0.0 2.0 0.00 0.00 0.00 65 1012.0
20260904215205 66 245 0.0 2.0 0.00 0.00 0.00 65 1012.0
20260904214705 66 277 0.0 2.0 0.00 0.00 0.00 65 1011.9
20260904214205 66 238 1.0 2.0 0.00 0.00 0.00 64 1012.0
20260904213704 66 260 0.0 3.0 0.00 0.00 0.00 64 1012.1
20260904213205 66 318 1.0 3.0 0.00 0.00 0.00 66 1012.0
20260904212204 66 161 0.0 1.0 0.00 0.00 0.00 67 1012.0
20260904211205 67 281 1.0 2.0 0.00 0.00 0.00 63 1011.9
20260904210705 67 176 1.0 2.0 0.00 0.00 0.00 64 1011.9
20260904210204 67 312 0.0 2.0 0.00 0.00 0.00 64 1011.8
20260904205705 67 302 0.0 1.0 0.00 0.00 0.00 62 1011.9
20260904204204 69 223 1.0 3.0 0.00 0.00 0.00 56 1011.8
20260904201704 70 156 1.0 2.0 0.00 0.00 0.00 56 1011.9
20260904201205 70 135 1.0 2.0 0.00 0.00 0.00 59 1011.9
20260904193704 69 317 0.0 2.0 0.00 0.00 0.00 64 1012.0
20260904193205 68 310 1.0 1.0 0.00 0.00 0.00 65 1012.0
20260904191705 66 77 0.0 2.0 0.00 0.00 0.00 73 1012.1
20260904191205 65 239 0.0 2.0 0.00 0.00 0.00 71 1012.1
20260904190204 64 105 0.0 2.0 0.00 0.00 0.00 74 1012.1
20260904185704 63 17 1.0 2.0 0.00 0.00 0.00 75 1012.1
20260904184705 61 19 0.0 2.0 0.00 0.00 0.00 82 1012.2
20260904184204 61 19 0.0 2.0 0.00 0.00 0.00 80 1012.3
20260904183704 61 19 0.0 0.0 0.00 0.00 0.00 81 1012.3
20260904183204 62 19 0.0 2.0 0.00 0.00 0.00 81 1012.3
20260904182204 61 19 0.0 2.0 0.00 0.00 0.00 81 1012.2
20260904181204 61 75 0.0 2.0 0.00 0.00 0.00 84 1012.1
20260904175205 60 61 1.0 2.0 0.00 0.00 0.00 83 1012.1
20260904174705 60 61 0.0 2.0 0.00 0.00 0.00 83 1012.1
20260904173704 60 61 0.0 2.0 0.00 0.00 0.00 85 1012.1
20260904173204 59 61 0.0 2.0 0.00 0.00 0.00 85 1012.1
20260904172705 59 61 0.0 2.0 0.00 0.00 0.00 85 1012.2
20260904171705 59 61 0.0 2.0 0.00 0.00 0.00 85 1012.1
20260904171204 59 61 0.0 0.0 0.00 0.00 0.00 85 1012.1
20260904170704 59 61 0.0 0.0 0.00 0.00 0.00 85 1012.1
20260904170204 59 61 0.0 2.0 0.00 0.00 0.00 86 1012.0
20260904165204 59 61 0.0 2.0 0.00 0.00 0.00 85 1012.0
20260904164704 59 61 1.0 2.0 0.00 0.00 0.00 85 1011.9
20260904163704 58 273 0.0 2.0 0.00 0.00 0.00 85 1012.0
20260904162704 58 273 0.0 2.0 0.00 0.00 0.00 86 1012.0
20260904161705 58 318 0.0 2.0 0.00 0.00 0.00 88 1012.0
20260904160705 57 341 0.0 2.0 0.00 0.00 0.00 89 1012.0
20260904154704 55 116 0.0 2.0 0.00 0.00 0.00 91 1011.9
20260904154205 55 116 0.0 2.0 0.00 0.00 0.00 91 1011.9
20260904152204 54 116 0.0 0.0 0.00 0.00 0.00 92 1011.8
20260904151704 54 116 0.0 0.0 0.00 0.00 0.00 92 1011.7
20260904151205 54 116 0.0 0.0 0.00 0.00 0.00 92 1011.7
20260904150705 54 116 0.0 0.0 0.00 0.00 0.00 92 1011.6
20260904150204 54 116 0.0 0.0 0.00 0.00 0.00 92 1011.5
20260904145704 54 116 0.0 0.0 0.00 0.00 0.00 92 1011.4
20260904145204 54 116 0.0 0.0 0.00 0.00 0.00 92 1011.3
20260904144704 54 116 0.0 0.0 0.00 0.00 0.00 92 1011.3
20260904142704 54 116 0.0 0.0 0.00 0.00 0.00 92 1011.2
20260904142205 54 116 0.0 0.0 0.00 0.00 0.00 92 1011.1
20260904141705 54 116 0.0 0.0 0.00 0.01 0.00 92 1011.1
20260904140704 54 116 0.0 0.0 0.00 0.01 0.00 92 1011.0
20260904135704 54 116 0.0 0.0 0.00 0.01 0.00 92 1010.9
20260904131204 54 116 0.0 0.0 0.00 0.01 0.00 91 1010.2
20260904130705 54 116 0.0 0.0 0.00 0.01 0.00 91 1010.2
20260904130204 54 116 0.0 2.0 0.00 0.01 0.00 91 1010.1
20260904125205 54 116 0.0 2.0 0.00 0.01 0.00 91 1010.1
20260904123205 54 116 0.0 2.0 0.00 0.01 0.00 91 1010.1
20260904122704 54 116 0.0 2.0 0.00 0.01 0.00 90 1010.1
20260904120704 54 116 0.0 2.0 0.00 0.01 0.00 91 1010.1
20260904114205 54 116 0.0 2.0 0.00 0.01 0.00 90 1009.7
20260904113704 54 116 0.0 2.0 0.00 0.01 0.00 90 1009.6
20260904113205 54 116 0.0 0.0 0.00 0.01 0.00 90 1009.6
20260904105704 54 116 0.0 2.0 0.00 0.03 0.00 90 1009.5
20260904104704 54 116 0.0 0.0 0.00 0.03 0.00 89 1009.6